Location: ????????
(55.6189°N, 38.3031°E)
Time: 00:15:52
(UTC+00:00)

COSMOS 2406 - Pass Details

Date: 15 November 2019
Orbit: 843 x 864 km, 71.0° (Epoch: 10 December)

Event Time Altitude Azimuth Distance (km) Brightness Sun altitude
Exits shadow 01:19:54 69° 69° (ENE) 924 3.4 -30.7°
Drops below altitude 10° 01:25:06 10° 36° (NE) 2,514 6.2 -30.0°
Sets 01:27:34 0° 35° (NE) 3,453 7.0 -29.6°
